User: anonymous   Login
Location: Unspecified
(0.0000°N, 0.0000°E)
Time: 00:51:01
(UTC+00:00)
Language:

TBA - TO BE ASSIGNED - Orbit

View from above orbital plane
View from above orbital plane
View from above satellite
View from above satellite

Ground track
Ground track

The orbit is defined by the following mean orbital elements,

1 69077U          26145.60950831 +.00000000 +00000-0 +31924-4 0 00005
2 69077  88.9867 344.1981 0002803 167.3445 192.7816 14.20503106    06
Epoch (UTC): 25 May 2026 14:37:41
Eccentricity: 0.0002803
inclination: 88.9867°
perigee height: 822 km
apogee height: 826 km
right ascension of ascending node: 344.1981°
argument of perigee: 167.3445°
revolutions per day: 14.20503106
mean anomaly at epoch: 192.7816°

The dashed part of the orbit path shows where the satellite is in the earth's shadow,  

DLR